Location: Kam�li
(14.6864°N, 3.1482°W)
Time: 01:58:22
(UTC+00:00)

NOAA 15 - Pass Details

Date: 29 October 2020
Orbit: 797 x 813 km, 98.7° (Epoch: 02 December)

Event Time Altitude Azimuth Distance (km) Brightness Sun altitude
Rises 19:13:23 0° 167° (SSE) 3,315 7.8 -21.8°
Reaches altitude 10° 19:15:43 10° 167° (SSE) 2,387 7.0 -22.3°
Maximum altitude 19:21:00 89° 82° (E) 814 4.5 -23.6°
Drops below altitude 10° 19:26:19 10° 348° (NNW) 2,395 7.1 -24.8°
Sets 19:28:39 0° 348° (NNW) 3,327 7.8 -25.4°
